Location: Poughquag
(41.6090°N, 73.6820°W)
Time: 10:21:08
(UTC-04:00)

Transit 2A Rocket - All Passes

Search period start: 14 October 2019 00:00
Search period end: 24 October 2019 00:00
Orbit: 593 x 910 km, 66.7° (Epoch: 14 October)

Date Brightness Start Highest point End Pass type
(mag) Time Alt. Az. Time Alt. Az. Time Alt. Az.
14 Oct - 06:59:17 10° SSW 07:04:32 74° ESE 07:09:20 10° NE daylight
14 Oct - 08:44:14 10° W 08:47:31 17° NW 08:50:39 10° N daylight
14 Oct - 15:42:49 10° NNW 15:47:03 53° ENE 15:51:18 10° SE daylight
14 Oct - 17:26:47 10° WNW 17:29:06 14° WSW 17:31:26 10° SW daylight
15 Oct - 06:17:10 10° S 06:22:05 41° ESE 06:26:37 10° NE visible
15 Oct - 08:00:25 10° WSW 08:04:43 27° NW 08:08:46 10° N daylight
15 Oct - 15:00:36 10° N 15:04:25 29° NE 15:08:13 10° ESE daylight
15 Oct - 16:43:12 10° NW 16:46:50 27° WSW 16:50:30 10° S daylight
16 Oct - 05:35:37 10° SSE 05:39:43 23° ESE 05:43:34 10° ENE visible
16 Oct - 07:17:07 10° SW 07:22:03 44° NW 07:26:36 10° NNE daylight
16 Oct - 14:18:39 10° N 14:21:38 18° NE 14:24:36 10° E daylight
16 Oct - 16:00:17 10° NW 16:04:27 52° WSW 16:08:42 10° SSE daylight
17 Oct - 04:55:09 10° SE 04:57:25 13° ESE 04:59:38 10° E visible
17 Oct - 06:34:16 10° SSW 06:39:29 78° WNW 06:44:15 10° NNE visible
17 Oct - 08:20:34 10° WNW 08:22:43 13° NW 08:24:48 10° NNW daylight
17 Oct - 13:37:29 10° NNE 13:38:43 11° NE 13:39:58 10° ENE daylight
17 Oct - 15:17:40 10° NNW 15:22:00 81° ENE 15:26:22 10° SSE daylight
18 Oct - 05:51:50 10° SSW 05:56:59 60° ESE 06:01:41 10° NE visible
18 Oct - 07:36:11 10° W 07:39:50 20° NW 07:43:17 10° N daylight
18 Oct - 14:35:18 10° NNW 14:39:26 43° NE 14:43:35 10° SE daylight
18 Oct - 16:18:41 10° WNW 16:21:37 18° WSW 16:24:35 10° SSW daylight
19 Oct - 05:09:54 10° S 05:14:33 33° ESE 05:18:53 10° NE visible
19 Oct - 06:52:34 10° WSW 06:57:05 32° NW 07:01:18 10° NNE daylight
19 Oct - 13:53:10 10° N 13:56:45 25° NE 14:00:19 10° ESE daylight
19 Oct - 15:35:25 10° NW 15:39:18 33° WSW 15:43:15 10° S daylight
20 Oct - 04:28:37 10° SSE 04:32:13 19° ESE 04:35:37 10° ENE visible
20 Oct - 06:09:25 10° SW 06:14:27 53° WNW 06:19:04 10° NNE visible
20 Oct - 13:11:22 10° N 13:13:55 15° NE 13:16:29 10° E daylight
20 Oct - 14:52:37 10° NW 14:56:54 66° WSW 15:01:15 10° SSE daylight
21 Oct - 03:49:47 10° ESE 03:49:57 10° ESE 03:50:08 10° ESE visible
21 Oct - 05:26:43 10° SSW 05:31:54 87° ESE 05:36:39 10° NNE visible
21 Oct - 07:12:17 10° WNW 07:15:00 15° NW 07:17:37 10° N daylight
21 Oct - 14:10:07 10° NNW 14:14:24 65° ENE 14:18:45 10° SE daylight
21 Oct - 15:54:51 10° W 15:56:21 12° WSW 15:57:52 10° SW daylight
22 Oct - 04:44:27 10° S 04:49:26 49° ESE 04:54:01 10° NE visible
22 Oct - 06:28:13 10° WSW 06:32:10 23° NW 06:35:54 10° N visible
22 Oct - 13:27:49 10° NNW 13:31:47 35° NE 13:35:48 10° ESE daylight
22 Oct - 15:10:45 10° WNW 15:14:06 22° WSW 15:17:31 10° SSW daylight
23 Oct - 04:02:42 10° SSE 04:07:02 27° ESE 04:11:05 10° NE visible
23 Oct - 05:44:46 10° WSW 05:49:28 37° NW 05:53:49 10° NNE visible
23 Oct - 12:45:46 10° N 12:49:04 21° NE 12:52:22 10° E daylight
23 Oct - 14:27:41 10° NW 14:31:45 42° WSW 14:35:55 10° S daylight
